Location: Byszew
(52.1813°N, 19.2693°E)
Time: 14:38:56
(UTC+00:00)

Terra - Pass Details

Date: 03 March 2021
Orbit: 701 x 703 km, 98.2° (Epoch: 13 April)

Event Time Altitude Azimuth Distance (km) Brightness Sun altitude
Exits shadow 19:42:41 22° 13° (NNE) 1,536 3.7 -29.8°
Drops below altitude 10° 19:44:35 10° 359° (N) 2,185 4.7 -30.0°
Sets 19:46:59 0° 351° (N) 3,108 5.7 -30.4°
